Location: Passau
(48.5721°N, 13.4363°E)
Time: 07:11:16
(UTC+02:00)

ISS - Visible Passes

Search period start: 22 July 2018 00:00
Search period end: 01 August 2018 00:00
Orbit: 402 x 408 km, 51.6° (Epoch: 22 July)

Date Brightness Start Highest point End Pass type
(mag) Time Alt. Az. Time Alt. Az. Time Alt. Az.
22 Jul -2.8 00:31:51 10° W 00:35:03 47° N 00:38:16 10° ENE visible
22 Jul -3.6 02:08:31 10° WNW 02:11:49 70° NNE 02:15:06 10° ESE visible
22 Jul -3.0 03:45:13 10° W 03:48:08 29° SW 03:51:04 10° SSE visible
22 Jul -3.8 22:03:05 10° SW 22:06:17 56° SSE 22:09:32 10° ENE visible
22 Jul -3.0 23:39:37 10° W 23:42:51 52° N 23:46:06 10° ENE visible
23 Jul -3.2 01:16:23 10° WNW 01:19:38 55° N 01:20:52 32° ENE visible
23 Jul -1.4 02:52:56 10° WNW 02:53:22 13° WNW 02:53:22 13° WNW visible
23 Jul -3.4 22:47:23 10° W 22:50:39 63° NNW 22:53:55 10° ENE visible
24 Jul -2.9 00:24:13 10° WNW 00:27:26 48° N 00:29:10 23° ENE visible
24 Jul -1.7 02:00:46 10° WNW 02:01:45 18° WNW 02:01:45 18° WNW visible
24 Jul -3.8 21:55:12 10° WSW 21:58:29 85° NNW 22:01:47 10° ENE visible
24 Jul -2.8 23:32:00 10° WNW 23:35:11 46° N 23:38:11 11° ENE visible
25 Jul -2.7 01:08:37 10° WNW 01:10:47 38° WNW 01:10:47 38° WNW visible
25 Jul -2.9 22:39:44 10° W 22:42:56 49° N 22:46:10 10° ENE visible
26 Jul -3.4 00:16:28 10° WNW 00:19:43 60° NNE 00:20:01 56° NE visible
26 Jul -3.2 21:47:27 10° W 21:50:42 58° NNW 21:53:57 10° ENE visible
26 Jul -3.0 23:24:16 10° WNW 23:27:29 50° N 23:29:20 22° ENE visible
27 Jul -1.7 01:00:48 10° WNW 01:01:57 20° WNW 01:01:57 20° WNW visible
27 Jul -2.8 22:32:01 10° WNW 22:35:12 46° N 22:38:24 10° ENE visible
28 Jul -3.4 00:08:36 10° WNW 00:11:19 58° WNW 00:11:19 58° WNW visible
28 Jul -2.8 21:39:43 10° W 21:42:55 48° N 21:46:08 10° ENE visible
28 Jul -3.5 23:16:24 10° WNW 23:19:41 65° NNE 23:20:43 38° E visible
29 Jul -1.1 00:53:02 10° W 00:53:21 12° W 00:53:21 12° W visible
29 Jul -3.1 22:24:11 10° WNW 22:27:25 53° N 22:30:09 13° E visible
30 Jul -2.5 00:00:43 10° WNW 00:02:47 33° W 00:02:47 33° W visible
30 Jul -2.9 21:31:55 10° WNW 21:35:06 47° N 21:38:19 10° E visible
30 Jul -4.0 23:08:28 10° WNW 23:11:46 82° SSW 23:12:14 62° SE visible
31 Jul -3.7 22:16:15 10° WNW 22:19:31 72° NNE 22:21:42 19° E visible
31 Jul -1.8 23:52:57 10° W 23:54:21 20° W 23:54:21 20° W visible
